This is the latest recevied weather packets stored in our database for station/object DO7ZT-13. If no packets are shown the sender has not sent any weather packets the latest 10 day(s).
| Time | Temp. | Humidity | Pressure | Rain* | Wind** | Luminosity | Snow |
|---|---|---|---|---|---|---|---|
| 1778059825 | 16.11° C | 71% | 1005.8 hPa | 0 mm | 0.89 m/s, 186° | - | - |
| 1778059512 | 16.11° C | 71% | 1005.8 hPa | 0 mm | 1.34 m/s, 200° | - | - |
| 1778059225 | 17.22° C | 70% | 1005.8 hPa | 0 mm | 2.24 m/s, 174° | - | - |
| 1778058913 | 17.22° C | 69% | 1005.6 hPa | 0 mm | 0.89 m/s, 186° | - | - |
| 1778058625 | 17.22° C | 70% | 1005.6 hPa | 0 mm | 0.45 m/s, 179° | - | - |
| 1778058313 | 17.22° C | 71% | 1005.6 hPa | 0 mm | 0.89 m/s, 223° | - | - |
| 1778058025 | 17.22° C | 70% | 1005.5 hPa | 0 mm | 0.45 m/s, 194° | - | - |
| 1778057712 | 17.22° C | 69% | 1005.5 hPa | 0 mm | 1.34 m/s, 6° | - | - |
| 1778057425 | 16.11° C | 71% | 1005.5 hPa | 0 mm | 0.89 m/s, 174° | - | - |
| 1778057112 | 16.11° C | 71% | 1005.3 hPa | 0 mm | 1.79 m/s, 206° | - | - |
| 1778056837 | 16.11° C | 71% | 1005.3 hPa | 0 mm | 0.45 m/s, 257° | - | - |
| 1778056525 | 17.22° C | 71% | 1005.3 hPa | 0 mm | 1.34 m/s, 258° | - | - |
| 1778056212 | 17.22° C | 71% | 1005.2 hPa | 0 mm | 0.89 m/s, 314° | - | - |
| 1778055925 | 16.11° C | 72% | 1005.2 hPa | 0 mm | 0.89 m/s, 135° | - | - |
| 1778055612 | 16.11° C | 72% | 1005.2 hPa | 0 mm | 0.45 m/s, 258° | - | - |
| 1778055325 | 16.11° C | 72% | 1005.1 hPa | 0 mm | 0.89 m/s, 246° | - | - |
| 1778055012 | 16.11° C | 72% | 1005.1 hPa | 0 mm | 0.89 m/s, 187° | - | - |
| 1778054725 | 16.11° C | 72% | 1005.1 hPa | 0 mm | 0.89 m/s, 267° | - | - |
| 1778054413 | 16.11° C | 73% | 1005.2 hPa | 0 mm | 2.68 m/s, 197° | - | - |
| 1778054125 | 16.11° C | 74% | 1005.2 hPa | 0 mm | 0.45 m/s, 168° | - | - |
| 1778053813 | 16.11° C | 74% | 1005.2 hPa | 0 mm | 2.24 m/s, 126° | - | - |
| 1778053525 | 16.11° C | 73% | 1005.4 hPa | 0 mm | 1.79 m/s, 173° | - | - |
| 1778053212 | 16.11° C | 74% | 1005.4 hPa | 0 mm | 0.89 m/s, 185° | - | - |
| 1778052925 | 16.11° C | 74% | 1005.4 hPa | 0 mm | 1.79 m/s, 204° | - | - |
| 1778052613 | 16.11° C | 74% | 1004.8 hPa | 0 mm | 2.24 m/s, 216° | - | - |
* Rain latest hour (hover to see other rain measurements)
** Current wind speed in m/s (hover to see current wind gust speed)